KOUN Airport (University Of Oklahoma Westheimer) Information

FAA: OUN - ICAO: KOUN

KOUN Airport Location

State Oklahoma
County Cleveland
City Norman
KOUN Airport is 3 miles northwest of Norman, OK.
Latitude 35-14-44.0000N
Longitude 097-28-19.7000W
Elevation 1,181ft

KOUN Airport METARs

METAR KOUN 071945Z 04006KT 4SM -RA BR OVC012 09/08 A3017
Altimeter 30.17"
Temperature 9.0°C (48.2°F)
Wind 40° at 6KT
Clouds overcast at 1,200ft
Visibility 4.0mi
Time observed: 2022-12-07T19:45:00Z

KOUN Airport Details

Status Operational
Activation January 1941
Ownership Public
Usage Public
Chart DALLAS-FT WORTH
ATC on-site Yes
Beacon schedule sunset-sunrise
Beacon color clear green

KOUN Airport Contacts

Owner UNIV OF OKLAHOMA
Owner address 1700 LEXINGTON AVE, NORMAN, OK 73069
Owner phone 405-325-7233
Manager BOBBY KEHN
Manager address 214 S. MAIN, PO BOX 157, PO BOX 157, MOORELAND, OK 73852
Manager phone 580-994-5924

KOUN Airport (University Of Oklahoma Westheimer) Radio Frequencies

KOUN (Airport) Radio Frequencies

UNICOM 122.95
Common traffic advisory frequency (CTAF) 118